Flag for U.S.A. Weather past 2 weeks in Olympia, Washington, U.S.A.

Now
69 °F

Sunny.


Feels Like: 69 °F
Forecast: 49 / 71 °F
Wind: 8 mph from West

Location: Olympia Airport

Current Time: May 30, 2015 at 2:38:53 PM

Latest Report: May 30, 2015 at 1:54 PM


Visibility: 10 mi

Pressure: 29.96 "Hg

Humidity: 44%

Dew point: 46 °F

Location of OlympiaLocation

Historic Weather in Olympia — Graph

°F

Olympia temperature yesterday

Maximum temperature yesterday: 79 °F (at 3:54 PM)
Minimum temperature yesterday: 51 °F (at 4:54 AM)
Average temperature yesterday: 62 °F

Past Weeks' High & Low Weather Summary

 TemperatureHumidityPressure
High83 °F (May 28, 5:54 PM)100% (May 27, 5:54 AM)30.19 "Hg (May 27, 5:54 AM)
Low41 °F (May 17, 2:54 AM)34% (May 28, 4:54 PM)29.82 "Hg (May 21, 3:54 PM)
Average58 °F75%30.02 "Hg
* Reported May 15 12:54 PM — May 30 12:54 PM, Olympia, Weather by CustomWeather, © 2015

Note: Actual official high and low records may vary slightly from our data, if they occured in-between our weather recording intervals... More about our weather records

Advertising

Olympia weather history for previous 24 hours

 ConditionsComfort  
Time TempWeatherWind HumidityBarometerVisibility
12:54 PM
Sat, May 30
66 °FSunny.3 mph49%29.96 "Hg10 mi
11:54 AM63 °FSunny.6 mph54%29.97 "Hg10 mi
10:54 AM60 °FSunny.6 mph58%29.97 "Hg10 mi
9:54 AM57 °FPassing clouds.5 mph64%29.98 "Hg10 mi
8:54 AM56 °FPartly sunny.7 mph70%29.99 "Hg10 mi
7:54 AM53 °FPartly sunny.7 mph77%29.98 "Hg10 mi
6:54 AM50 °FSunny.3 mph83%29.98 "Hg10 mi
5:54 AM44 °FClear.No wind93%29.97 "Hg9 mi
4:54 AM47 °FClear.3 mph86%29.96 "Hg10 mi
3:54 AM47 °FClear.7 mph90%29.96 "Hg10 mi
2:54 AM47 °FClear.6 mph90%29.96 "Hg10 mi
1:54 AM48 °FClear.6 mph86%29.96 "Hg10 mi
12:54 AM50 °FClear.5 mph83%29.95 "Hg10 mi
11:54 PM
Fri, May 29
52 °FClear.3 mph80%29.95 "Hg10 mi
10:54 PM54 °FClear.7 mph74%29.95 "Hg10 mi
9:54 PM56 °FSunny.6 mph67%29.93 "Hg10 mi
8:54 PM61 °FSunny.8 mph56%29.91 "Hg10 mi
7:54 PM66 °FSunny.8 mph54%29.91 "Hg10 mi
6:54 PM70 °FSunny.9 mph49%29.90 "Hg10 mi
5:54 PM76 °FSunny.10 mph43%29.90 "Hg10 mi
4:54 PM79 °FSunny.12 mph36%29.90 "Hg10 mi
3:54 PM79 °FSunny.10 mph44%29.91 "Hg10 mi
2:54 PM77 °FSunny.7 mph50%29.93 "Hg10 mi
Weather by CustomWeather, © 2015

See weather overviewHow to use our weather pages